Total_Precipitation_Accumulation
0.00 0.00 0.00 0.00 0.00 0.00 0.00 0.00 0.00 0.00 0.00 0.00 0.00 0.00 0.00 0.00 0.00 0.00 0.00 0.00 0.00 0.00 0.00 0.02 0.02 0.01 0.00 0.00 0.00 0.00 0.00 0.00 0.00 0.00 0.00 0.00 0.00 0.00
0.00 0.00 0.00 0.00 0.00 0.00 0.00 0.00 0.00 0.00 0.00 0.00 0.00 0.00 0.00 0.00 0.00 0.00 0.00 0.00 0.00 0.00 0.00 0.00 0.01 0.01 0.00 0.00 0.00 0.00 0.00 0.00 0.00 0.00 0.00 0.00 0.00 0.00
0.02 0.00 0.00 0.00 0.00 0.00 0.00 0.00 0.00 0.00 0.00 0.00 0.00 0.00 0.00 0.00 0.00 0.00 0.00 0.00 0.00 0.00 0.00 0.00 0.00 0.00 0.00 0.00 0.00 0.00 0.00 0.00 0.00 0.00 0.00 0.00 0.00 0.00
0.06 0.00 0.00 0.00 0.00 0.00 0.00 0.00 0.00 0.00 0.00 0.00 0.00 0.00 0.00 0.00 0.00 0.00 0.00 0.00 0.00 0.00 0.00 0.00 0.00 0.00 0.00 0.00 0.00 0.00 0.00 0.00 0.00 0.00 0.00 0.00 0.00 0.00
0.10 0.02 0.00 0.00 0.00 0.00 0.00 0.00 0.00 0.00 0.00 0.00 0.00 0.00 0.00 0.00 0.00 0.00 0.00 0.00 0.00 0.00 0.00 0.00 0.00 0.00 0.00 0.00 0.00 0.00 0.00 0.00 0.00 0.00 0.00 0.00 0.00 0.00
0.15 0.04 0.00 0.00 0.00 0.00 0.00 0.00 0.00 0.00 0.00 0.00 0.00 0.00 0.00 0.00 0.00 0.00 0.00 0.00 0.00 0.00 0.00 0.00 0.00 0.00 0.00 0.00 0.00 0.00 0.00 0.00 0.00 0.00 0.00 0.00 0.00 0.00
0.18 0.09 0.01 0.00 0.00 0.00 0.00 0.00 0.00 0.00 0.00 0.00 0.00 0.00 0.00 0.00 0.00 0.00 0.00 0.00 0.00 0.00 0.00 0.00 0.00 0.00 0.00 0.00 0.00 0.00 0.00 0.00 0.00 0.00 0.00 0.00 0.00 0.00
0.36 0.16 0.07 0.01 0.00 0.00 0.00 0.00 0.00 0.00 0.00 0.00 0.00 0.00 0.00 0.00 0.00 0.00 0.00 0.00 0.00 0.00 0.00 0.00 0.00 0.00 0.00 0.00 0.00 0.00 0.00 0.00 0.00 0.00 0.00 0.00 0.00 0.00
0.53 0.40 0.21 0.05 0.00 0.00 0.00 0.00 0.00 0.00 0.00 0.00 0.00 0.00 0.00 0.00 0.00 0.00 0.00 0.00 0.00 0.00 0.00 0.00 0.00 0.00 0.00 0.00 0.00 0.00 0.00 0.00 0.00 0.00 0.00 0.00 0.00 0.00
0.56 0.58 0.51 0.24 0.02 0.00 0.00 0.00 0.00 0.00 0.00 0.00 0.00 0.00 0.00 0.00 0.00 0.00 0.00 0.00 0.00 0.00 0.00 0.00 0.00 0.00 0.00 0.00 0.00 0.00 0.00 0.00 0.00 0.00 0.00 0.00 0.00 0.00
0.39 0.45 0.54 0.52 0.27 0.03 0.01 0.01 0.00 0.00 0.00 0.00 0.00 0.00 0.00 0.00 0.00 0.00 0.00 0.00 0.00 0.00 0.00 0.00 0.00 0.00 0.00 0.00 0.00 0.00 0.00 0.00 0.00 0.00 0.00 0.00 0.00 0.00
0.45 0.37 0.39 0.39 0.35 0.25 0.04 0.00 0.01 0.00 0.00 0.00 0.00 0.00 0.00 0.00 0.00 0.00 0.00 0.00 0.00 0.00 0.00 0.00 0.00 0.00 0.00 0.00 0.00 0.00 0.00 0.00 0.00 0.00 0.00 0.00 0.00 0.00
0.60 0.45 0.34 0.42 0.42 0.39 0.32 0.07 0.00 0.00 0.00 0.00 0.00 0.00 0.00 0.00 0.00 0.00 0.00 0.00 0.00 0.00 0.00 0.00 0.00 0.00 0.00 0.00 0.00 0.00 0.00 0.00 0.00 0.00 0.00 0.00 0.00 0.00
0.72 0.55 0.41 0.35 0.28 0.32 0.44 0.40 0.17 0.05 0.00 0.00 0.00 0.00 0.00 0.00 0.00 0.00 0.00 0.00 0.00 0.00 0.00 0.00 0.00 0.00 0.00 0.00 0.00 0.00 0.00 0.00 0.00 0.00 0.00 0.00 0.00 0.00
0.64 0.82 0.67 0.40 0.28 0.27 0.34 0.44 0.50 0.39 0.17 0.05 0.01 0.00 0.00 0.00 0.00 0.00 0.00 0.00 0.00 0.00 0.00 0.00 0.00 0.00 0.00 0.00 0.00 0.00 0.00 0.00 0.00 0.00 0.00 0.00 0.00 0.00
0.23 0.34 0.48 0.48 0.42 0.38 0.32 0.36 0.50 0.61 0.52 0.28 0.08 0.02 0.00 0.00 0.00 0.00 0.00 0.00 0.00 0.00 0.00 0.00 0.00 0.00 0.00 0.00 0.00 0.00 0.00 0.00 0.00 0.00 0.00 0.00 0.00 0.00
0.20 0.15 0.20 0.26 0.35 0.42 0.33 0.29 0.34 0.47 0.45 0.27 0.16 0.11 0.06 0.02 0.01 0.00 0.00 0.00 0.00 0.00 0.00 0.00 0.00 0.00 0.00 0.00 0.00 0.00 0.00 0.00 0.00 0.00 0.00 0.00 0.00 0.00
0.14 0.15 0.22 0.28 0.36 0.43 0.42 0.36 0.32 0.38 0.36 0.30 0.20 0.14 0.10 0.05 0.04 0.02 0.00 0.00 0.01 0.00 0.00 0.00 0.00 0.00 0.01 0.02 0.06 0.01 0.00 0.00 0.00 0.00 0.01 0.03 0.04 0.04
0.16 0.16 0.20 0.23 0.29 0.35 0.42 0.42 0.38 0.35 0.34 0.30 0.30 0.27 0.21 0.14 0.16 0.07 0.05 0.03 0.02 0.01 0.00 0.00 0.00 0.00 0.01 0.02 0.05 0.08 0.01 0.00 0.00 0.00 0.01 0.06 0.11 0.14
0.28 0.31 0.28 0.29 0.29 0.30 0.31 0.33 0.33 0.31 0.30 0.32 0.33 0.35 0.37 0.32 0.26 0.19 0.14 0.10 0.07 0.07 0.07 0.06 0.05 0.04 0.05 0.05 0.08 0.16 0.19 0.08 0.06 0.08 0.11 0.18 0.30 0.42
0.27 0.33 0.38 0.36 0.34 0.36 0.38 0.37 0.36 0.35 0.31 0.21 0.23 0.28 0.32 0.34 0.35 0.33 0.29 0.39 0.34 0.18 0.14 0.13 0.14 0.31 0.13 0.11 0.22 0.26 0.18 0.24 0.17 0.16 0.20 0.27 0.31 0.30
0.23 0.25 0.29 0.35 0.39 0.39 0.40 0.42 0.42 0.46 0.45 0.34 0.26 0.20 0.21 0.25 0.28 0.31 0.32 0.31 0.27 0.19 0.17 0.17 0.19 0.21 0.20 0.22 0.26 0.31 0.28 0.22 0.29 0.31 0.30 0.32 0.29 0.25
0.20 0.24 0.24 0.26 0.29 0.34 0.39 0.41 0.43 0.45 0.46 0.47 0.46 0.40 0.30 0.21 0.19 0.22 0.24 0.24 0.24 0.25 0.26 0.26 0.25 0.22 0.19 0.20 0.33 0.28 0.29 0.23 0.17 0.17 0.29 0.49 0.39 0.35